User: anonymous   Login
Location: Unspecified
(0.0000°N, 0.0000°E)
Time: 20:55:10
(UTC+00:00)
Language:

DSP F6R - Orbit

View from above orbital plane
View from above orbital plane
View from above satellite
View from above satellite

Ground track
Ground track

The orbit data is extracted from the following two-line orbital elements,

1 15453U 84129A   18095.00261370 0.00000000  00000-0  00000-0 0    07
2 15453  15.6993 347.8036 0002638 324.5182  35.4763  0.98857296    00
Epoch (UTC): 05 April 2018 00:03:45
Eccentricity: 0.0002638
inclination: 15.6993°
perigee height: 36176 km
apogee height: 36198 km
right ascension of ascending node: 347.8036°
argument of perigee: 324.5182°
revolutions per day: 0.98857296
mean anomaly at epoch: 35.4763°
orbit number at epoch: 0

The dashed part of the orbit path shows where the satellite is in the earth's shadow,  

DLR